Time,TemperatureF,DewpointF,PressureIn,WindDirection,WindDirectionDegrees,WindSpeedMPH,WindSpeedGustMPH,Humidity,HourlyPrecipIn,Conditions,Clouds,dailyrainin,SolarRadiationWatts/m^2,SoftwareType,DateUTC
2013-05-01 00:01:00,58.8,33.3,29.86,WNW,286,5.0,5.0,38,0.00,,OVC085,0.00,0.00,VWS V14.01,2013-05-01 05:01:00,
2013-05-01 00:06:00,58.6,33.7,29.86,WNW,294,5.0,7.0,39,0.00,,OVC085,0.00,0.00,VWS V14.01,2013-05-01 05:06:00,
2013-05-01 00:11:00,58.5,33.7,29.86,NW,319,0.0,7.0,39,0.00,,OVC085,0.00,0.00,VWS V14.01,2013-05-01 05:11:00,
2013-05-01 00:16:00,58.2,34.0,29.86,WNW,289,5.0,7.0,40,0.00,,OVC085,0.00,0.00,VWS V14.01,2013-05-01 05:16:00,
2013-05-01 00:21:00,58.0,33.8,29.86,WNW,293,4.0,7.0,40,0.00,,OVC085,0.00,0.00,VWS V14.01,2013-05-01 05:21:00,
2013-05-01 00:27:00,57.8,34.3,29.86,NW,305,3.0,7.0,41,0.00,,OVC085,0.00,0.00,VWS V14.01,2013-05-01 05:27:00,
2013-05-01 00:32:00,57.6,34.7,29.88,NW,309,6.0,8.0,42,0.00,,OVC085,0.00,0.00,VWS V14.01,2013-05-01 05:32:00,
2013-05-01 00:37:00,57.4,35.7,29.89,WNW,286,4.0,8.0,44,0.00,,OVC085,0.00,0.00,VWS V14.01,2013-05-01 05:37:00,
2013-05-01 00:42:00,57.2,35.5,29.89,NW,316,4.0,8.0,44,0.00,,OVC085,0.00,0.00,VWS V14.01,2013-05-01 05:42:00,
2013-05-01 00:47:00,57.2,35.5,29.89,WNW,288,3.0,8.0,44,0.00,,OVC085,0.00,0.00,VWS V14.01,2013-05-01 05:47:00,
2013-05-01 00:52:00,57.1,36.0,29.89,WNW,292,5.0,9.0,45,0.00,,OVC085,0.00,0.00,VWS V14.01,2013-05-01 05:52:00,
2013-05-01 00:57:00,56.9,36.3,29.88,NNW,338,3.0,9.0,46,0.00,,OVC085,0.00,0.00,VWS V14.01,2013-05-01 05:57:00,
2013-05-01 01:02:00,56.9,38.0,29.89,WNW,296,4.0,8.0,49,0.00,,-RA,0.00,0.00,VWS V14.01,2013-05-01 06:02:00,
2013-05-01 01:07:00,56.6,37.7,29.89,NW,315,3.0,8.0,49,0.00,,-RA,0.00,0.00,VWS V14.01,2013-05-01 06:07:00,
2013-05-01 01:12:00,56.5,37.1,29.89,NW,306,7.0,10.0,48,0.00,,-RA,0.00,0.00,VWS V14.01,2013-05-01 06:12:00,
2013-05-01 01:17:00,56.6,36.6,29.89,NW,323,5.0,10.0,47,0.00,,-RA,0.00,0.00,VWS V14.01,2013-05-01 06:17:00,
2013-05-01 01:22:00,56.8,37.3,29.89,NNW,338,4.0,10.0,48,0.00,,-RA,0.00,0.00,VWS V14.01,2013-05-01 06:22:00,
2013-05-01 01:27:00,56.8,37.3,29.89,NW,309,5.0,10.0,48,0.00,,-RA,0.00,0.00,VWS V14.01,2013-05-01 06:27:00,
2013-05-01 01:32:00,56.7,36.7,29.89,NW,318,5.0,6.0,47,0.00,,-RA,0.00,0.00,VWS V14.01,2013-05-01 06:32:00,
2013-05-01 01:37:00,56.6,36.6,29.89,NNW,348,2.0,7.0,47,0.00,,-RA,0.00,0.00,VWS V14.01,2013-05-01 06:37:00,
2013-05-01 01:42:00,56.7,36.7,29.89,NNW,332,7.0,7.0,47,0.00,,-RA,0.00,0.00,VWS V14.01,2013-05-01 06:42:00,
2013-05-01 01:47:00,56.7,36.7,29.89,NW,319,0.0,8.0,47,0.00,,-RA,0.00,0.00,VWS V14.01,2013-05-01 06:47:00,
2013-05-01 01:52:00,56.7,36.7,29.90,NW,306,2.0,8.0,47,0.00,,-RA,0.00,0.00,VWS V14.01,2013-05-01 06:52:00,
2013-05-01 01:57:00,56.7,36.7,29.91,NW,311,3.0,8.0,47,0.00,,-RA,0.00,0.00,VWS V14.01,2013-05-01 06:57:00,
2013-05-01 02:02:00,56.6,36.6,29.91,NW,316,1.0,5.0,47,0.00,,-RA,0.00,0.00,VWS V14.01,2013-05-01 07:02:00,
2013-05-01 02:07:00,56.4,38.5,29.90,NW,316,0.0,5.0,51,0.00,,-RA,0.00,0.00,VWS V14.01,2013-05-01 07:07:00,
2013-05-01 02:12:00,56.0,40.1,29.90,NW,316,2.0,5.0,55,0.01,,-RA,0.01,0.00,VWS V14.01,2013-05-01 07:12:00,
2013-05-01 02:17:00,55.3,40.3,29.90,NW,316,0.0,5.0,57,0.01,,-RA,0.01,0.00,VWS V14.01,2013-05-01 07:17:00,
2013-05-01 02:22:00,54.7,42.4,29.89,NW,316,0.0,5.0,63,0.01,,-RA,0.01,0.00,VWS V14.01,2013-05-01 07:22:00,
2013-05-01 02:27:00,53.9,42.4,29.88,NW,316,0.0,5.0,65,0.01,,-RA,0.01,0.00,VWS V14.01,2013-05-01 07:27:00,
2013-05-01 02:32:00,53.2,42.9,29.90,NW,316,1.0,1.0,68,0.02,,-RA,0.02,0.00,VWS V14.01,2013-05-01 07:32:00,
2013-05-01 02:37:00,52.4,44.7,29.91,NW,316,0.0,2.0,75,0.02,,-RA,0.02,0.00,VWS V14.01,2013-05-01 07:37:00,
2013-05-01 02:42:00,51.8,45.2,29.91,NW,316,1.0,2.0,78,0.02,,-RA,0.02,0.00,VWS V14.01,2013-05-01 07:42:00,
2013-05-01 02:47:00,50.9,45.3,29.93,SW,236,3.0,4.0,81,0.02,,-RA,0.02,0.00,VWS V14.01,2013-05-01 07:47:00,
2013-05-01 02:52:00,50.1,45.2,29.92,SW,229,0.0,4.0,83,0.03,,-RA,0.03,0.00,VWS V14.01,2013-05-01 07:52:00,
2013-05-01 02:57:00,49.9,44.3,29.92,West,280,0.0,4.0,81,0.04,,-RA,0.04,0.00,VWS V14.01,2013-05-01 07:57:00,
2013-05-01 03:02:00,49.9,44.6,29.93,West,267,2.0,3.0,82,0.04,,-RA,0.04,0.00,VWS V14.01,2013-05-01 08:02:00,
2013-05-01 03:07:00,49.8,44.8,29.93,West,267,0.0,3.0,83,0.05,,-RA,0.05,0.00,VWS V14.01,2013-05-01 08:07:00,
2013-05-01 03:12:00,49.6,44.0,29.93,West,267,0.0,3.0,81,0.05,,-RA,0.05,0.00,VWS V14.01,2013-05-01 08:12:00,
2013-05-01 03:17:00,49.7,44.8,29.93,West,267,0.0,3.0,83,0.06,,-RA,0.06,0.00,VWS V14.01,2013-05-01 08:17:00,
2013-05-01 03:22:00,49.6,45.3,29.95,West,267,1.0,3.0,85,0.06,,RA,0.06,0.00,VWS V14.01,2013-05-01 08:22:00,
2013-05-01 03:27:00,49.1,44.5,29.95,West,274,1.0,3.0,84,0.06,,RA,0.06,0.00,VWS V14.01,2013-05-01 08:27:00,
2013-05-01 03:32:00,49.2,44.9,29.98,SW,227,4.0,5.0,85,0.05,,RA,0.06,0.00,VWS V14.01,2013-05-01 08:32:00,
2013-05-01 03:37:00,48.9,44.3,29.98,SW,227,2.0,5.0,84,0.05,,RA,0.06,0.00,VWS V14.01,2013-05-01 08:37:00,
2013-05-01 03:42:00,49.0,44.7,29.97,SW,227,0.0,5.0,85,0.06,,RA,0.07,0.00,VWS V14.01,2013-05-01 08:42:00,
2013-05-01 03:47:00,48.9,44.9,29.96,SW,227,0.0,5.0,86,0.06,,RA,0.07,0.00,VWS V14.01,2013-05-01 08:47:00,
2013-05-01 03:52:00,48.7,45.0,29.98,SW,227,4.0,5.0,87,0.06,,RA,0.07,0.00,VWS V14.01,2013-05-01 08:52:00,
2013-05-01 03:57:00,48.5,44.8,29.98,SW,227,3.0,5.0,87,0.07,,RA,0.08,0.00,VWS V14.01,2013-05-01 08:57:00,
2013-05-01 04:02:00,48.5,44.5,29.97,WNW,300,3.0,3.0,86,0.04,,RA,0.08,0.00,VWS V14.01,2013-05-01 09:02:00,
2013-05-01 04:07:00,48.6,44.6,29.97,WNW,300,0.0,4.0,86,0.05,,RA,0.09,0.00,VWS V14.01,2013-05-01 09:07:00,
2013-05-01 04:12:00,48.6,44.6,29.97,WNW,300,1.0,4.0,86,0.05,,RA,0.09,0.00,VWS V14.01,2013-05-01 09:12:00,
2013-05-01 04:17:00,48.7,44.7,29.99,WNW,300,2.0,4.0,86,0.06,,RA,0.10,0.00,VWS V14.01,2013-05-01 09:17:00,
2013-05-01 04:22:00,48.5,44.8,29.98,North,360,3.0,4.0,87,0.07,,RA,0.11,0.00,VWS V14.01,2013-05-01 09:22:00,
2013-05-01 04:27:00,48.4,45.0,29.96,North,355,1.0,4.0,88,0.07,,RA,0.11,0.00,VWS V14.01,2013-05-01 09:27:00,
2013-05-01 04:32:00,48.1,43.8,29.98,NW,325,5.0,7.0,85,0.06,,RA,0.12,0.00,VWS V14.01,2013-05-01 09:32:00,
2013-05-01 04:37:00,48.4,43.8,29.98,NW,326,3.0,7.0,84,0.06,,RA,0.12,0.00,VWS V14.01,2013-05-01 09:37:00,
2013-05-01 04:42:00,48.7,43.5,29.98,NNW,340,3.0,12.0,82,0.06,,RA,0.12,0.00,VWS V14.01,2013-05-01 09:42:00,
2013-05-01 04:47:00,48.8,43.6,29.98,NW,322,2.0,12.0,82,0.06,,RA,0.12,0.00,VWS V14.01,2013-05-01 09:47:00,
2013-05-01 04:52:00,48.6,43.4,29.99,NW,322,0.0,12.0,82,0.06,,RA,0.12,0.00,VWS V14.01,2013-05-01 09:52:00,
2013-05-01 04:57:00,48.5,43.3,29.98,NW,322,1.0,12.0,82,0.06,,RA,0.12,0.00,VWS V14.01,2013-05-01 09:57:00,
2013-05-01 05:02:00,48.4,43.5,29.97,NW,322,0.0,2.0,83,0.04,,OVC065,0.12,0.00,VWS V14.01,2013-05-01 10:02:00,
2013-05-01 05:07:00,48.4,43.5,29.97,NW,322,1.0,4.0,83,0.04,,OVC065,0.12,0.00,VWS V14.01,2013-05-01 10:07:00,
2013-05-01 05:12:00,48.1,43.5,29.98,NW,317,3.0,5.0,84,0.04,,OVC065,0.12,0.00,VWS V14.01,2013-05-01 10:12:00,
2013-05-01 05:17:00,48.2,42.7,29.98,NW,312,5.0,7.0,81,0.04,,OVC065,0.12,0.00,VWS V14.01,2013-05-01 10:17:00,
2013-05-01 05:22:00,48.3,42.8,29.98,NNW,327,1.0,7.0,81,0.04,,OVC065,0.12,0.00,VWS V14.01,2013-05-01 10:22:00,
2013-05-01 05:27:00,48.3,42.8,29.98,NW,324,3.0,7.0,81,0.04,,OVC065,0.12,0.00,VWS V14.01,2013-05-01 10:27:00,
2013-05-01 05:32:00,48.4,42.5,29.99,NW,316,6.0,8.0,80,0.01,,OVC065,0.12,0.00,VWS V14.01,2013-05-01 10:32:00,
2013-05-01 05:37:00,48.4,42.2,29.99,North,350,4.0,11.0,79,0.01,,OVC065,0.12,0.00,VWS V14.01,2013-05-01 10:37:00,
2013-05-01 05:42:00,48.4,42.2,29.99,NW,315,5.0,11.0,79,0.01,,OVC065,0.12,0.00,VWS V14.01,2013-05-01 10:42:00,
2013-05-01 05:47:00,48.3,42.1,30.00,NW,311,4.0,11.0,79,0.01,,OVC065,0.12,0.00,VWS V14.01,2013-05-01 10:47:00,
2013-05-01 05:52:00,48.1,41.9,30.00,NW,319,8.0,11.0,79,0.01,,OVC065,0.12,0.00,VWS V14.01,2013-05-01 10:52:00,
2013-05-01 05:57:00,48.1,42.2,30.01,NNW,341,3.0,11.0,80,0.01,,OVC065,0.12,0.00,VWS V14.01,2013-05-01 10:57:00,
2013-05-01 06:02:00,47.9,42.0,30.01,NW,309,8.0,10.0,80,0.00,,OVC065,0.12,0.00,VWS V14.01,2013-05-01 11:02:00,
2013-05-01 06:07:00,47.8,41.9,30.01,NNW,327,4.0,10.0,80,0.00,,OVC065,0.12,0.00,VWS V14.01,2013-05-01 11:07:00,
2013-05-01 06:12:00,47.6,41.8,30.02,NW,325,2.0,16.0,80,0.00,,OVC065,0.12,0.00,VWS V14.01,2013-05-01 11:12:00,
2013-05-01 06:17:00,47.4,41.9,30.02,NW,325,2.0,16.0,81,0.00,,OVC065,0.12,0.00,VWS V14.01,2013-05-01 11:17:00,
2013-05-01 06:22:00,47.3,41.8,30.03,NW,324,6.0,16.0,81,0.00,,OVC065,0.12,0.00,VWS V14.01,2013-05-01 11:22:00,
2013-05-01 06:27:00,47.3,41.8,30.04,NW,320,7.0,16.0,81,0.00,,OVC065,0.12,0.00,VWS V14.01,2013-05-01 11:27:00,
2013-05-01 06:32:00,47.3,42.1,30.04,NW,311,7.0,11.0,82,0.00,,OVC065,0.12,0.00,VWS V14.01,2013-05-01 11:32:00,
2013-05-01 06:37:00,47.1,41.9,30.04,NNW,342,6.0,13.0,82,0.00,,OVC065,0.12,0.00,VWS V14.01,2013-05-01 11:37:00,
2013-05-01 06:42:00,46.9,42.0,30.05,NW,306,10.0,13.0,83,0.00,,OVC065,0.12,0.00,VWS V14.01,2013-05-01 11:42:00,
2013-05-01 06:47:00,46.8,41.9,30.05,NW,308,3.0,14.0,83,0.00,,OVC065,0.12,0.00,VWS V14.01,2013-05-01 11:47:00,
2013-05-01 06:52:00,46.6,42.0,30.06,NW,316,9.0,14.0,84,0.00,,OVC065,0.12,0.00,VWS V14.01,2013-05-01 11:52:00,
2013-05-01 06:57:00,46.4,41.8,30.05,NW,316,5.0,14.0,84,0.00,,OVC065,0.12,5.00,VWS V14.01,2013-05-01 11:57:00,
2013-05-01 07:02:00,46.2,41.6,30.05,North,351,3.0,8.0,84,0.00,,OVC065,0.12,9.00,VWS V14.01,2013-05-01 12:02:00,
2013-05-01 07:07:00,46.1,41.8,30.06,NNW,335,5.0,9.0,85,0.00,,OVC065,0.12,11.00,VWS V14.01,2013-05-01 12:07:00,
2013-05-01 07:12:00,46.1,42.2,30.06,NNW,344,2.0,10.0,86,0.00,,OVC065,0.12,12.00,VWS V14.01,2013-05-01 12:12:00,
2013-05-01 07:17:00,46.0,42.0,30.07,NW,305,2.0,10.0,86,0.00,,OVC065,0.12,14.00,VWS V14.01,2013-05-01 12:17:00,
2013-05-01 07:22:00,45.9,42.0,30.07,NNW,341,2.0,10.0,86,0.00,,OVC065,0.12,16.00,VWS V14.01,2013-05-01 12:22:00,
2013-05-01 07:27:00,45.9,42.0,30.08,NNW,336,1.0,10.0,86,0.00,,OVC065,0.12,19.00,VWS V14.01,2013-05-01 12:27:00,
2013-05-01 07:32:00,45.9,42.3,30.08,NW,311,4.0,5.0,87,0.00,,OVC065,0.12,23.00,VWS V14.01,2013-05-01 12:32:00,
2013-05-01 07:37:00,45.9,42.3,30.09,NNW,331,3.0,6.0,87,0.00,,OVC065,0.12,28.00,VWS V14.01,2013-05-01 12:37:00,
2013-05-01 07:42:00,45.9,42.3,30.10,NW,310,4.0,8.0,87,0.00,,OVC065,0.12,30.00,VWS V14.01,2013-05-01 12:42:00,
2013-05-01 07:47:00,45.9,42.3,30.11,NW,317,5.0,8.0,87,0.00,,OVC065,0.12,33.00,VWS V14.01,2013-05-01 12:47:00,
2013-05-01 07:52:00,45.8,42.2,30.11,NNW,328,4.0,8.0,87,0.00,,OVC065,0.12,21.00,VWS V14.01,2013-05-01 12:52:00,
2013-05-01 07:57:00,45.8,42.2,30.13,WNW,289,9.0,10.0,87,0.00,,OVC065,0.12,19.00,VWS V14.01,2013-05-01 12:57:00,
2013-05-01 08:02:00,45.7,42.4,30.13,West,269,4.0,11.0,88,0.00,,OVC065,0.12,18.00,VWS V14.01,2013-05-01 13:02:00,
2013-05-01 08:07:00,45.6,42.3,30.13,NW,306,4.0,11.0,88,0.00,,OVC065,0.12,28.00,VWS V14.01,2013-05-01 13:07:00,
2013-05-01 08:12:00,45.4,42.1,30.13,NW,307,2.0,11.0,88,0.00,,OVC065,0.12,23.00,VWS V14.01,2013-05-01 13:12:00,
2013-05-01 08:17:00,45.3,42.3,30.13,NW,313,5.0,11.0,89,0.00,,OVC065,0.12,16.00,VWS V14.01,2013-05-01 13:17:00,
2013-05-01 08:22:00,45.1,42.1,30.13,NNE,12,5.0,11.0,89,0.00,,OVC065,0.12,12.00,VWS V14.01,2013-05-01 13:22:00,
2013-05-01 08:27:00,44.9,41.9,30.13,NNW,337,2.0,11.0,89,0.00,,OVC065,0.12,25.00,VWS V14.01,2013-05-01 13:27:00,
2013-05-01 08:32:00,44.6,41.6,30.13,NNW,333,5.0,9.0,89,0.00,,OVC065,0.12,35.00,VWS V14.01,2013-05-01 13:32:00,
2013-05-01 08:37:00,44.5,41.5,30.14,NNW,330,4.0,11.0,89,0.00,,OVC065,0.12,39.00,VWS V14.01,2013-05-01 13:37:00,
2013-05-01 08:42:00,44.5,41.5,30.13,NW,311,3.0,11.0,89,0.00,,OVC065,0.12,37.00,VWS V14.01,2013-05-01 13:42:00,
2013-05-01 08:47:00,44.3,41.3,30.13,WNW,291,9.0,11.0,89,0.00,,OVC065,0.12,51.00,VWS V14.01,2013-05-01 13:47:00,
2013-05-01 08:52:00,44.3,41.3,30.13,NNW,334,4.0,11.0,89,0.00,,OVC065,0.12,53.00,VWS V14.01,2013-05-01 13:52:00,
2013-05-01 08:57:00,44.3,41.3,30.14,NW,323,3.0,11.0,89,0.00,,OVC065,0.12,42.00,VWS V14.01,2013-05-01 13:57:00,
2013-05-01 09:02:00,44.3,41.3,30.14,WNW,302,4.0,7.0,89,0.00,,OVC065,0.12,40.00,VWS V14.01,2013-05-01 14:02:00,
2013-05-01 09:08:00,44.3,41.3,30.14,NW,326,3.0,12.0,89,0.00,,OVC065,0.12,42.00,VWS V14.01,2013-05-01 14:08:00,
2013-05-01 09:13:00,44.2,40.9,30.14,NW,309,4.0,12.0,88,0.00,,OVC065,0.12,47.00,VWS V14.01,2013-05-01 14:13:00,
2013-05-01 09:17:00,44.2,40.9,30.14,North,355,2.0,12.0,88,0.00,,OVC065,0.12,35.00,VWS V14.01,2013-05-01 14:17:00,
2013-05-01 09:22:00,44.2,40.9,30.14,North,355,2.0,12.0,88,0.00,,OVC034,0.12,35.00,VWS V14.01,2013-05-01 14:22:00,
2013-05-01 09:27:00,44.2,40.9,30.15,NNW,330,7.0,12.0,88,0.00,,OVC034,0.12,60.00,VWS V14.01,2013-05-01 14:27:00,
2013-05-01 09:32:00,44.3,40.7,30.15,North,355,3.0,8.0,87,0.00,,OVC034,0.12,56.00,VWS V14.01,2013-05-01 14:32:00,
2013-05-01 09:37:00,44.3,40.7,30.16,NW,323,3.0,8.0,87,0.00,,OVC034,0.12,47.00,VWS V14.01,2013-05-01 14:37:00,
2013-05-01 09:43:00,44.3,40.4,30.16,NNW,342,6.0,14.0,86,0.00,,OVC034,0.12,46.00,VWS V14.01,2013-05-01 14:43:00,
2013-05-01 09:47:00,44.1,39.9,30.16,NW,313,7.0,14.0,85,0.00,,OVC034,0.12,53.00,VWS V14.01,2013-05-01 14:47:00,
2013-05-01 09:53:00,43.9,39.4,30.16,NNW,341,6.0,14.0,84,0.00,,OVC034,0.12,49.00,VWS V14.01,2013-05-01 14:53:00,
2013-05-01 09:58:00,43.9,39.7,30.15,NNW,330,4.0,14.0,85,0.00,,OVC034,0.12,77.00,VWS V14.01,2013-05-01 14:58:00,
2013-05-01 10:03:00,43.8,39.6,30.16,North,355,2.0,8.0,85,0.00,,OVC032,0.12,72.00,VWS V14.01,2013-05-01 15:03:00,
2013-05-01 10:08:00,43.6,39.4,30.16,NNW,331,6.0,14.0,85,0.00,,OVC032,0.12,74.00,VWS V14.01,2013-05-01 15:08:00,
2013-05-01 10:13:00,43.4,39.5,30.16,NW,324,4.0,14.0,86,0.00,,OVC032,0.12,86.00,VWS V14.01,2013-05-01 15:13:00,
2013-05-01 10:18:00,43.4,39.8,30.16,NNW,342,3.0,14.0,87,0.00,,OVC032,0.12,84.00,VWS V14.01,2013-05-01 15:18:00,
2013-05-01 10:23:00,43.3,39.7,30.16,NNW,338,3.0,14.0,87,0.00,,OVC032,0.12,84.00,VWS V14.01,2013-05-01 15:23:00,
2013-05-01 10:28:00,43.3,40.0,30.16,NW,325,3.0,14.0,88,0.00,,OVC032,0.12,77.00,VWS V14.01,2013-05-01 15:28:00,
2013-05-01 10:33:00,43.3,40.0,30.16,North,5,3.0,7.0,88,0.00,,OVC032,0.12,104.00,VWS V14.01,2013-05-01 15:33:00,
2013-05-01 10:38:00,43.1,39.5,30.16,NW,315,7.0,12.0,87,0.00,,OVC032,0.12,67.00,VWS V14.01,2013-05-01 15:38:00,
2013-05-01 10:43:00,43.0,39.4,30.17,NNW,346,2.0,12.0,87,0.00,,OVC032,0.12,72.00,VWS V14.01,2013-05-01 15:43:00,
2013-05-01 10:48:00,43.0,39.4,30.17,North,5,8.0,12.0,87,0.00,,OVC032,0.12,76.00,VWS V14.01,2013-05-01 15:48:00,
2013-05-01 10:53:00,43.0,39.4,30.17,North,349,3.0,12.0,87,0.00,,OVC032,0.12,95.00,VWS V14.01,2013-05-01 15:53:00,
2013-05-01 10:58:00,43.0,39.4,30.17,NW,323,3.0,12.0,87,0.00,,OVC032,0.12,98.00,VWS V14.01,2013-05-01 15:58:00,
2013-05-01 11:03:00,43.1,39.8,30.17,North,360,2.0,6.0,88,0.00,,OVC029,0.12,97.00,VWS V14.01,2013-05-01 16:03:00,
2013-05-01 11:08:00,43.1,39.5,30.17,NNE,12,6.0,7.0,87,0.00,,OVC029,0.12,105.00,VWS V14.01,2013-05-01 16:08:00,
2013-05-01 11:13:00,43.0,39.1,30.17,North,351,2.0,7.0,86,0.00,,OVC029,0.12,86.00,VWS V14.01,2013-05-01 16:13:00,
2013-05-01 11:18:00,43.0,39.4,30.18,North,355,4.0,7.0,87,0.00,,OVC029,0.12,111.00,VWS V14.01,2013-05-01 16:18:00,
2013-05-01 11:23:00,43.1,39.5,30.18,NNW,346,1.0,8.0,87,0.00,,OVC029,0.12,121.00,VWS V14.01,2013-05-01 16:23:00,
2013-05-01 11:28:00,43.3,39.7,30.17,NNW,333,0.0,8.0,87,0.00,,OVC029,0.12,156.00,VWS V14.01,2013-05-01 16:28:00,
2013-05-01 11:33:00,43.5,39.6,30.17,North,355,2.0,5.0,86,0.00,,OVC029,0.12,148.00,VWS V14.01,2013-05-01 16:33:00,
2013-05-01 11:38:00,43.6,39.7,30.17,North,355,5.0,8.0,86,0.00,,OVC029,0.12,176.00,VWS V14.01,2013-05-01 16:38:00,
2013-05-01 11:43:00,43.8,39.6,30.17,NNE,28,4.0,8.0,85,0.00,,OVC029,0.12,216.00,VWS V14.01,2013-05-01 16:43:00,
2013-05-01 11:48:00,44.1,39.9,30.17,North,9,3.0,8.0,85,0.00,,OVC029,0.12,227.00,VWS V14.01,2013-05-01 16:48:00,
2013-05-01 11:53:00,44.4,40.2,30.17,NW,321,1.0,8.0,85,0.00,,OVC029,0.12,178.00,VWS V14.01,2013-05-01 16:53:00,
2013-05-01 11:58:00,44.5,40.0,30.18,North,355,4.0,9.0,84,0.00,,OVC029,0.12,167.00,VWS V14.01,2013-05-01 16:58:00,
2013-05-01 12:03:00,44.5,40.0,30.18,NNW,339,2.0,6.0,84,0.00,,OVC035,0.12,153.00,VWS V14.01,2013-05-01 17:03:00,
2013-05-01 12:08:00,44.5,40.3,30.18,NW,309,8.0,8.0,85,0.00,,OVC035,0.12,172.00,VWS V14.01,2013-05-01 17:08:00,
2013-05-01 12:13:00,44.6,40.4,30.18,NNW,344,0.0,8.0,85,0.00,,OVC035,0.12,179.00,VWS V14.01,2013-05-01 17:13:00,
2013-05-01 12:18:00,44.7,39.9,30.19,NNW,344,5.0,8.0,83,0.00,,OVC035,0.12,155.00,VWS V14.01,2013-05-01 17:18:00,
2013-05-01 12:23:00,44.6,39.8,30.20,North,355,7.0,8.0,83,0.00,,OVC035,0.12,125.00,VWS V14.01,2013-05-01 17:23:00,
2013-05-01 12:28:00,44.5,39.7,30.20,NNW,328,6.0,8.0,83,0.00,,OVC035,0.12,127.00,VWS V14.01,2013-05-01 17:28:00,
2013-05-01 12:33:00,44.5,40.0,30.20,NW,316,3.0,7.0,84,0.00,,OVC035,0.12,135.00,VWS V14.01,2013-05-01 17:33:00,
2013-05-01 12:38:00,44.5,39.7,30.20,NW,315,6.0,10.0,83,0.00,,OVC035,0.12,149.00,VWS V14.01,2013-05-01 17:38:00,
2013-05-01 12:43:00,44.3,39.8,30.20,NW,312,7.0,10.0,84,0.00,,OVC037,0.12,160.00,VWS V14.01,2013-05-01 17:43:00,
2013-05-01 12:48:00,44.3,39.8,30.20,WNW,288,5.0,10.0,84,0.00,,OVC037,0.12,139.00,VWS V14.01,2013-05-01 17:48:00,
2013-05-01 12:53:00,44.3,39.5,30.20,NW,325,3.0,10.0,83,0.00,,OVC037,0.12,144.00,VWS V14.01,2013-05-01 17:53:00,
2013-05-01 12:58:00,44.4,39.9,30.20,NW,317,2.0,10.0,84,0.00,,OVC037,0.12,186.00,VWS V14.01,2013-05-01 17:58:00,
2013-05-01 13:03:00,44.7,39.9,30.20,North,355,3.0,6.0,83,0.00,,OVC037,0.12,209.00,VWS V14.01,2013-05-01 18:03:00,
2013-05-01 13:08:00,44.6,39.5,30.21,NNW,337,4.0,9.0,82,0.00,,OVC037,0.12,116.00,VWS V14.01,2013-05-01 18:08:00,
2013-05-01 13:13:00,44.6,39.8,30.22,NNW,343,4.0,10.0,83,0.00,,OVC037,0.12,114.00,VWS V14.01,2013-05-01 18:13:00,
2013-05-01 13:18:00,44.7,39.9,30.22,WNW,302,6.0,10.0,83,0.00,,OVC037,0.12,142.00,VWS V14.01,2013-05-01 18:18:00,
2013-05-01 13:23:00,44.5,39.7,30.22,NW,318,6.0,12.0,83,0.00,,OVC037,0.12,100.00,VWS V14.01,2013-05-01 18:23:00,
2013-05-01 13:28:00,44.2,39.4,30.21,NNW,339,4.0,12.0,83,0.00,,OVC037,0.12,93.00,VWS V14.01,2013-05-01 18:28:00,
2013-05-01 13:33:00,44.3,39.8,30.22,North,360,5.0,9.0,84,0.00,,OVC037,0.12,132.00,VWS V14.01,2013-05-01 18:33:00,
2013-05-01 13:38:00,44.4,39.9,30.22,NNW,346,5.0,10.0,84,0.00,,OVC037,0.12,151.00,VWS V14.01,2013-05-01 18:38:00,
2013-05-01 13:43:00,44.2,39.7,30.22,NW,313,10.0,12.0,84,0.00,,OVC037,0.12,127.00,VWS V14.01,2013-05-01 18:43:00,
2013-05-01 13:48:00,44.1,39.6,30.22,North,355,3.0,12.0,84,0.00,,OVC037,0.12,149.00,VWS V14.01,2013-05-01 18:48:00,
2013-05-01 13:53:00,44.2,40.0,30.21,NW,324,4.0,12.0,85,0.00,,OVC037,0.12,204.00,VWS V14.01,2013-05-01 18:53:00,
2013-05-01 13:58:00,44.3,40.1,30.22,NW,325,5.0,12.0,85,0.00,,OVC037,0.12,98.00,VWS V14.01,2013-05-01 18:58:00,
2013-05-01 14:03:00,43.9,39.4,30.21,WNW,292,8.0,12.0,84,0.00,,OVC037,0.12,100.00,VWS V14.01,2013-05-01 19:03:00,
2013-05-01 14:08:00,43.6,39.4,30.22,NNW,339,7.0,13.0,85,0.00,,OVC037,0.12,95.00,VWS V14.01,2013-05-01 19:08:00,
2013-05-01 14:13:00,43.6,39.4,30.22,NNW,343,3.0,13.0,85,0.00,,OVC037,0.12,77.00,VWS V14.01,2013-05-01 19:13:00,
2013-05-01 14:18:00,43.4,39.2,30.22,NW,317,6.0,13.0,85,0.00,,OVC037,0.12,107.00,VWS V14.01,2013-05-01 19:18:00,
2013-05-01 14:23:00,43.2,39.0,30.23,NW,310,8.0,15.0,85,0.00,,OVC037,0.12,90.00,VWS V14.01,2013-05-01 19:23:00,
2013-05-01 14:28:00,43.1,38.6,30.23,NNW,333,5.0,15.0,84,0.00,,OVC037,0.12,97.00,VWS V14.01,2013-05-01 19:28:00,
2013-05-01 14:33:00,43.0,38.5,30.23,NNW,346,4.0,15.0,84,0.00,,OVC037,0.12,100.00,VWS V14.01,2013-05-01 19:33:00,
2013-05-01 14:38:00,42.9,38.4,30.24,NNW,332,11.0,15.0,84,0.00,,OVC037,0.12,72.00,VWS V14.01,2013-05-01 19:38:00,
2013-05-01 14:43:00,42.7,38.2,30.24,NW,312,7.0,15.0,84,0.00,,OVC037,0.12,79.00,VWS V14.01,2013-05-01 19:43:00,
2013-05-01 14:48:00,42.5,38.0,30.24,NW,315,8.0,15.0,84,0.00,,OVC037,0.12,72.00,VWS V14.01,2013-05-01 19:48:00,
2013-05-01 14:53:00,42.2,37.4,30.25,North,355,6.0,16.0,83,0.00,,OVC037,0.12,56.00,VWS V14.01,2013-05-01 19:53:00,
2013-05-01 14:58:00,42.1,37.6,30.25,WNW,302,4.0,16.0,84,0.00,,OVC037,0.12,88.00,VWS V14.01,2013-05-01 19:58:00,
2013-05-01 15:03:00,42.1,37.6,30.25,North,5,4.0,10.0,84,0.00,,OVC014,0.12,83.00,VWS V14.01,2013-05-01 20:03:00,
2013-05-01 15:08:00,42.0,37.5,30.25,NW,320,1.0,12.0,84,0.00,,OVC014,0.12,98.00,VWS V14.01,2013-05-01 20:08:00,
2013-05-01 15:13:00,42.0,37.5,30.25,NNW,348,3.0,12.0,84,0.00,,OVC014,0.12,76.00,VWS V14.01,2013-05-01 20:13:00,
2013-05-01 15:18:00,42.0,37.5,30.26,NNW,343,1.0,12.0,84,0.00,,OVC014,0.12,69.00,VWS V14.01,2013-05-01 20:18:00,
2013-05-01 15:23:00,42.1,37.9,30.25,North,355,0.0,12.0,85,0.00,,OVC014,0.12,65.00,VWS V14.01,2013-05-01 20:23:00,
2013-05-01 15:28:00,42.2,37.7,30.26,NNW,345,2.0,12.0,84,0.00,,OVC014,0.12,67.00,VWS V14.01,2013-05-01 20:28:00,
2013-05-01 15:33:00,42.1,37.6,30.26,North,5,2.0,9.0,84,0.00,,OVC014,0.12,54.00,VWS V14.01,2013-05-01 20:33:00,
2013-05-01 15:38:00,42.1,37.9,30.27,NNW,335,1.0,9.0,85,0.00,,OVC014,0.12,32.00,VWS V14.01,2013-05-01 20:38:00,
2013-05-01 15:43:00,42.0,37.5,30.26,NNW,332,2.0,9.0,84,0.00,,OVC014,0.12,56.00,VWS V14.01,2013-05-01 20:43:00,
2013-05-01 15:48:00,42.0,37.5,30.27,North,5,2.0,9.0,84,0.00,,OVC014,0.12,60.00,VWS V14.01,2013-05-01 20:48:00,
2013-05-01 15:53:00,42.0,37.5,30.27,North,9,2.0,9.0,84,0.00,,OVC014,0.12,56.00,VWS V14.01,2013-05-01 20:53:00,
2013-05-01 15:58:00,41.9,37.4,30.28,NW,315,2.0,11.0,84,0.00,,OVC014,0.12,74.00,VWS V14.01,2013-05-01 20:58:00,
2013-05-01 16:03:00,41.8,37.0,30.28,North,355,4.0,12.0,83,0.00,,OVC035,0.12,62.00,VWS V14.01,2013-05-01 21:03:00,
2013-05-01 16:08:00,41.6,36.8,30.28,NNW,340,4.0,12.0,83,0.00,,OVC035,0.12,63.00,VWS V14.01,2013-05-01 21:08:00,
2013-05-01 16:13:00,41.5,36.7,30.30,NW,324,7.0,15.0,83,0.00,,OVC035,0.12,30.00,VWS V14.01,2013-05-01 21:13:00,
2013-05-01 16:18:00,41.2,36.4,30.30,NNE,18,4.0,15.0,83,0.00,,OVC035,0.12,32.00,VWS V14.01,2013-05-01 21:18:00,
2013-05-01 16:23:00,41.1,36.3,30.30,NW,309,7.0,15.0,83,0.00,,OVC037,0.12,33.00,VWS V14.01,2013-05-01 21:23:00,
2013-05-01 16:28:00,40.9,36.1,30.30,NNW,329,1.0,15.0,83,0.00,,OVC037,0.12,33.00,VWS V14.01,2013-05-01 21:28:00,
2013-05-01 16:33:00,40.7,35.6,30.31,NW,313,10.0,13.0,82,0.00,,OVC037,0.12,30.00,VWS V14.01,2013-05-01 21:33:00,
2013-05-01 16:38:00,40.3,35.2,30.31,NNW,343,4.0,14.0,82,0.00,,OVC037,0.12,42.00,VWS V14.01,2013-05-01 21:38:00,
2013-05-01 16:43:00,40.0,35.0,30.31,NNW,347,5.0,16.0,82,0.00,,OVC037,0.12,47.00,VWS V14.01,2013-05-01 21:43:00,
2013-05-01 16:48:00,40.0,35.0,30.32,WNW,301,5.0,16.0,82,0.00,,OVC037,0.12,42.00,VWS V14.01,2013-05-01 21:48:00,
2013-05-01 16:53:00,39.9,35.2,30.31,NW,323,4.0,16.0,83,0.00,,OVC037,0.12,37.00,VWS V14.01,2013-05-01 21:53:00,
2013-05-01 16:58:00,39.8,34.8,30.31,NW,315,2.0,16.0,82,0.00,,OVC037,0.12,32.00,VWS V14.01,2013-05-01 21:58:00,
2013-05-01 17:03:00,39.9,35.2,30.31,NNE,17,2.0,8.0,83,0.00,,OVC037,0.12,32.00,VWS V14.01,2013-05-01 22:03:00,
2013-05-01 17:08:00,39.8,34.8,30.31,North,5,8.0,9.0,82,0.00,,OVC037,0.12,37.00,VWS V14.01,2013-05-01 22:08:00,
2013-05-01 17:13:00,39.8,35.1,30.31,North,355,1.0,9.0,83,0.00,,OVC037,0.12,33.00,VWS V14.01,2013-05-01 22:13:00,
2013-05-01 17:18:00,39.8,35.1,30.31,NNW,338,1.0,9.0,83,0.00,,OVC037,0.12,33.00,VWS V14.01,2013-05-01 22:18:00,
2013-05-01 17:23:00,39.8,35.4,30.32,NW,320,0.0,9.0,84,0.00,,-RA,0.12,23.00,VWS V14.01,2013-05-01 22:23:00,
2013-05-01 17:28:00,39.7,35.0,30.32,NNW,333,6.0,9.0,83,0.00,,-RA,0.12,32.00,VWS V14.01,2013-05-01 22:28:00,
2013-05-01 17:33:00,39.5,34.8,30.31,NNE,19,4.0,6.0,83,0.00,,-RA,0.12,28.00,VWS V14.01,2013-05-01 22:33:00,
2013-05-01 17:38:00,39.3,34.6,30.31,NW,315,4.0,9.0,83,0.00,,-RA,0.12,26.00,VWS V14.01,2013-05-01 22:38:00,
2013-05-01 17:44:00,39.2,34.8,30.33,West,272,6.0,9.0,84,0.00,,OVC039,0.12,12.00,VWS V14.01,2013-05-01 22:44:00,
2013-05-01 17:49:00,39.1,34.4,30.32,NNW,336,7.0,9.0,83,0.00,,OVC039,0.12,28.00,VWS V14.01,2013-05-01 22:49:00,
2013-05-01 17:54:00,38.9,34.5,30.32,NNW,342,4.0,13.0,84,0.00,,OVC039,0.12,16.00,VWS V14.01,2013-05-01 22:54:00,
2013-05-01 17:59:00,38.6,34.5,30.33,NNW,331,3.0,13.0,85,0.01,,OVC039,0.13,19.00,VWS V14.01,2013-05-01 22:59:00,
2013-05-01 18:04:00,38.3,34.5,30.32,NNW,333,6.0,11.0,86,0.01,,-RA,0.13,12.00,VWS V14.01,2013-05-01 23:04:00,
2013-05-01 18:09:00,38.0,34.2,30.32,NNW,329,8.0,11.0,86,0.01,,-RA,0.13,12.00,VWS V14.01,2013-05-01 23:09:00,
2013-05-01 18:14:00,37.8,34.3,30.33,North,360,2.0,11.0,87,0.01,,-RA,0.13,11.00,VWS V14.01,2013-05-01 23:14:00,
2013-05-01 18:19:00,37.7,34.5,30.32,NNW,342,2.0,11.0,88,0.01,,-RA,0.13,7.00,VWS V14.01,2013-05-01 23:19:00,
2013-05-01 18:24:00,37.5,34.3,30.33,NW,321,6.0,11.0,88,0.01,,-RA,0.13,7.00,VWS V14.01,2013-05-01 23:24:00,
2013-05-01 18:29:00,37.3,34.1,30.33,North,351,4.0,11.0,88,0.02,,-RA,0.14,7.00,VWS V14.01,2013-05-01 23:29:00,
2013-05-01 18:34:00,37.1,34.2,30.33,NNW,340,2.0,11.0,89,0.02,,-RA,0.14,7.00,VWS V14.01,2013-05-01 23:34:00,
2013-05-01 18:39:00,37.0,34.1,30.34,NNW,333,2.0,11.0,89,0.02,,-RA,0.14,0.00,VWS V14.01,2013-05-01 23:39:00,
2013-05-01 18:44:00,36.9,34.0,30.34,NNW,329,8.0,11.0,89,0.02,,-RA,0.14,9.00,VWS V14.01,2013-05-01 23:44:00,
2013-05-01 18:49:00,36.7,33.8,30.34,North,350,4.0,11.0,89,0.02,,-RA,0.14,9.00,VWS V14.01,2013-05-01 23:49:00,
2013-05-01 18:54:00,36.5,33.6,30.33,NNE,13,2.0,11.0,89,0.03,,-RA,0.15,12.00,VWS V14.01,2013-05-01 23:54:00,
2013-05-01 18:59:00,36.2,33.3,30.34,NNW,345,3.0,11.0,89,0.03,,-RA,0.15,5.00,VWS V14.01,2013-05-01 23:59:00,
2013-05-01 19:04:00,35.9,33.0,30.35,NNE,13,3.0,7.0,89,0.02,,-RA,0.15,0.00,VWS V14.01,2013-05-02 00:04:00,
2013-05-01 19:09:00,35.5,32.6,30.34,NNW,344,2.0,7.0,89,0.02,,-RA,0.15,0.00,VWS V14.01,2013-05-02 00:09:00,
2013-05-01 19:14:00,35.3,32.4,30.34,NNW,346,1.0,7.0,89,0.02,,-RA,0.15,0.00,VWS V14.01,2013-05-02 00:14:00,
2013-05-01 19:19:00,35.2,32.6,30.36,North,10,2.0,11.0,90,0.02,,-RA,0.15,0.00,VWS V14.01,2013-05-02 00:19:00,
2013-05-01 19:24:00,35.2,32.6,30.37,NW,314,6.0,11.0,90,0.02,,-RA,0.15,0.00,VWS V14.01,2013-05-02 00:24:00,
2013-05-01 19:29:00,35.2,32.6,30.37,NNW,347,3.0,11.0,90,0.02,,-RA,0.15,0.00,VWS V14.01,2013-05-02 00:29:00,
2013-05-01 19:34:00,35.2,32.6,30.36,North,351,2.0,7.0,90,0.02,,-RA,0.16,0.00,VWS V14.01,2013-05-02 00:34:00,
2013-05-01 19:39:00,35.2,32.6,30.36,North,360,3.0,9.0,90,0.02,,-RA,0.16,0.00,VWS V14.01,2013-05-02 00:39:00,
2013-05-01 19:44:00,35.1,32.5,30.37,NNE,19,3.0,9.0,90,0.02,,OVC046,0.16,0.00,VWS V14.01,2013-05-02 00:44:00,
2013-05-01 19:49:00,35.1,32.5,30.37,NNE,15,4.0,9.0,90,0.02,,OVC046,0.16,0.00,VWS V14.01,2013-05-02 00:49:00,
2013-05-01 19:54:00,35.1,32.5,30.37,North,9,2.0,9.0,90,0.02,,OVC046,0.16,0.00,VWS V14.01,2013-05-02 00:54:00,
2013-05-01 19:59:00,35.1,32.5,30.37,North,5,3.0,9.0,90,0.02,,OVC046,0.16,0.00,VWS V14.01,2013-05-02 00:59:00,
2013-05-01 20:04:00,35.1,32.5,30.36,North,5,1.0,8.0,90,0.01,,OVC060,0.16,0.00,VWS V14.01,2013-05-02 01:04:00,
2013-05-01 20:09:00,35.1,32.5,30.37,NNE,27,0.0,8.0,90,0.01,,OVC060,0.16,0.00,VWS V14.01,2013-05-02 01:09:00,
2013-05-01 20:14:00,35.1,32.5,30.35,NE,40,1.0,8.0,90,0.01,,OVC060,0.16,0.00,VWS V14.01,2013-05-02 01:14:00,
2013-05-01 20:19:00,35.1,32.5,30.37,North,360,1.0,8.0,90,0.02,,OVC060,0.17,0.00,VWS V14.01,2013-05-02 01:19:00,
2013-05-01 20:24:00,35.1,32.5,30.37,NNE,26,1.0,8.0,90,0.02,,OVC060,0.17,0.00,VWS V14.01,2013-05-02 01:24:00,
2013-05-01 20:29:00,35.1,32.5,30.37,North,9,1.0,8.0,90,0.02,,OVC060,0.17,0.00,VWS V14.01,2013-05-02 01:29:00,
2013-05-01 20:34:00,35.1,32.5,30.39,NW,322,2.0,7.0,90,0.02,,OVC060,0.17,0.00,VWS V14.01,2013-05-02 01:34:00,
2013-05-01 20:39:00,35.1,32.5,30.39,NNW,335,3.0,8.0,90,0.02,,OVC060,0.17,0.00,VWS V14.01,2013-05-02 01:39:00,
2013-05-01 20:44:00,35.1,32.5,30.41,NE,35,0.0,8.0,90,0.02,,OVC060,0.17,0.00,VWS V14.01,2013-05-02 01:44:00,
2013-05-01 20:49:00,35.1,32.5,30.42,NNW,327,2.0,8.0,90,0.02,,OVC060,0.17,0.00,VWS V14.01,2013-05-02 01:49:00,
2013-05-01 20:54:00,35.1,32.5,30.40,North,5,2.0,8.0,90,0.02,,OVC060,0.17,0.00,VWS V14.01,2013-05-02 01:54:00,
2013-05-01 20:59:00,35.0,32.4,30.40,North,360,1.0,8.0,90,0.03,,OVC060,0.18,0.00,VWS V14.01,2013-05-02 01:59:00,
2013-05-01 21:04:00,35.0,32.4,30.41,North,355,3.0,4.0,90,0.02,,-RA,0.18,0.00,VWS V14.01,2013-05-02 02:04:00,
2013-05-01 21:09:00,34.9,32.3,30.38,North,5,3.0,5.0,90,0.02,,-RA,0.18,0.00,VWS V14.01,2013-05-02 02:09:00,
2013-05-01 21:14:00,34.8,32.2,30.40,NNW,340,5.0,7.0,90,0.02,,-RA,0.18,0.00,VWS V14.01,2013-05-02 02:14:00,
2013-05-01 21:19:00,34.7,32.1,30.40,NNW,331,1.0,8.0,90,0.02,,-RA,0.18,0.00,VWS V14.01,2013-05-02 02:19:00,
2013-05-01 21:24:00,34.7,32.1,30.41,NNW,331,2.0,11.0,90,0.03,,-RA,0.19,0.00,VWS V14.01,2013-05-02 02:24:00,
2013-05-01 21:29:00,34.7,32.1,30.40,North,351,2.0,11.0,90,0.03,,-RA,0.19,0.00,VWS V14.01,2013-05-02 02:29:00,
2013-05-01 21:34:00,34.7,32.1,30.40,North,5,2.0,6.0,90,0.02,,-RA,0.19,0.00,VWS V14.01,2013-05-02 02:34:00,
2013-05-01 21:39:00,34.7,32.1,30.39,NE,37,3.0,7.0,90,0.02,,-RA,0.19,0.00,VWS V14.01,2013-05-02 02:39:00,
2013-05-01 21:44:00,34.7,32.1,30.40,NNE,13,2.0,7.0,90,0.02,,-RA,0.19,0.00,VWS V14.01,2013-05-02 02:44:00,
2013-05-01 21:49:00,34.7,32.1,30.40,NNW,344,7.0,7.0,90,0.03,,-RA,0.20,0.00,VWS V14.01,2013-05-02 02:49:00,
2013-05-01 21:54:00,34.8,32.2,30.39,North,5,2.0,7.0,90,0.03,,-RA,0.20,0.00,VWS V14.01,2013-05-02 02:54:00,
2013-05-01 21:59:00,34.8,32.2,30.40,NNW,336,1.0,7.0,90,0.03,,-RA,0.20,0.00,VWS V14.01,2013-05-02 02:59:00,
2013-05-01 22:04:00,34.8,32.2,30.41,NNW,340,6.0,6.0,90,0.02,,RA,0.20,0.00,VWS V14.01,2013-05-02 03:04:00,
2013-05-01 22:09:00,34.8,32.2,30.41,North,5,3.0,6.0,90,0.02,,RA,0.20,0.00,VWS V14.01,2013-05-02 03:09:00,
2013-05-01 22:14:00,34.8,32.2,30.41,NNW,348,2.0,6.0,90,0.02,,RA,0.20,0.00,VWS V14.01,2013-05-02 03:14:00,
2013-05-01 22:19:00,34.7,32.1,30.41,NNW,339,2.0,6.0,90,0.02,,RA,0.20,0.00,VWS V14.01,2013-05-02 03:19:00,
2013-05-01 22:24:00,34.7,32.1,30.41,NNW,336,4.0,6.0,90,0.02,, +RA,0.20,0.00,VWS V14.01,2013-05-02 03:24:00,
2013-05-01 22:29:00,34.6,32.0,30.41,NNW,342,2.0,7.0,90,0.02,, +RA,0.20,0.00,VWS V14.01,2013-05-02 03:29:00,
2013-05-01 22:34:00,34.5,31.9,30.39,NNE,15,4.0,8.0,90,0.01,, +RA,0.20,0.00,VWS V14.01,2013-05-02 03:34:00,
2013-05-01 22:39:00,34.4,31.8,30.40,North,355,2.0,8.0,90,0.01,, +RA,0.20,0.00,VWS V14.01,2013-05-02 03:39:00,
2013-05-01 22:44:00,34.3,31.7,30.38,NNE,30,1.0,8.0,90,0.01,, +RA,0.20,0.00,VWS V14.01,2013-05-02 03:44:00,
2013-05-01 22:49:00,34.3,31.7,30.38,North,11,3.0,8.0,90,0.01,, +RA,0.20,0.00,VWS V14.01,2013-05-02 03:49:00,
2013-05-01 22:54:00,34.3,31.7,30.40,NW,321,1.0,8.0,90,0.01,, +RA,0.20,0.00,VWS V14.01,2013-05-02 03:54:00,
2013-05-01 22:59:00,34.4,31.8,30.39,North,355,0.0,8.0,90,0.01,, +RA,0.20,0.00,VWS V14.01,2013-05-02 03:59:00,
2013-05-01 23:01:00,34.3,31.7,30.39,North,360,0.0,3.0,90,0.00,, +RA,0.20,0.00,VWS V14.01,2013-05-02 04:01:00,
2013-05-01 23:02:00,34.4,31.8,30.39,North,360,1.0,3.0,90,0.00,, +RA,0.20,0.00,VWS V14.01,2013-05-02 04:02:00,
2013-05-01 23:07:00,34.3,31.7,30.39,North,355,4.0,6.0,90,0.00,, +RA,0.20,0.00,VWS V14.01,2013-05-02 04:07:00,
2013-05-01 23:12:00,34.3,31.7,30.39,NE,37,0.0,6.0,90,0.00,, +RA,0.20,0.00,VWS V14.01,2013-05-02 04:12:00,
2013-05-01 23:17:00,34.3,31.7,30.39,North,355,2.0,6.0,90,0.00,, +RA,0.20,0.00,VWS V14.01,2013-05-02 04:17:00,
2013-05-01 23:21:00,34.3,31.7,30.39,NNE,12,3.0,6.0,90,0.00,,-RA,0.20,0.00,VWS V14.01,2013-05-02 04:21:00,
2013-05-01 23:26:00,34.4,31.8,30.39,NNE,13,2.0,8.0,90,0.00,,-RA,0.20,0.00,VWS V14.01,2013-05-02 04:26:00,
2013-05-01 23:31:00,34.4,31.8,30.40,NW,322,3.0,4.0,90,0.00,,-RA,0.20,0.00,VWS V14.01,2013-05-02 04:31:00,
2013-05-01 23:36:00,34.4,31.8,30.39,North,9,3.0,5.0,90,0.00,,-RA,0.20,0.00,VWS V14.01,2013-05-02 04:36:00,
2013-05-01 23:41:00,34.4,31.8,30.40,NNW,338,4.0,8.0,90,0.00,,-RA,0.20,0.00,VWS V14.01,2013-05-02 04:41:00,
2013-05-01 23:46:00,34.4,31.8,30.41,NW,323,3.0,8.0,90,0.00,,-RA,0.20,0.00,VWS V14.01,2013-05-02 04:46:00,
2013-05-01 23:52:00,34.4,31.8,30.41,North,360,2.0,8.0,90,0.00,,-RA,0.20,0.00,VWS V14.01,2013-05-02 04:52:00,
2013-05-01 23:57:00,34.4,31.8,30.40,North,5,2.0,8.0,90,0.00,,-RA,0.20,0.00,VWS V14.01,2013-05-02 04:57:00,